Simultaneous Nadir Overpasses (SNOs) Predictions

Prediction of SNOs between AQUA and NPP Satellite Orbit:

Table of predicted SNOs for the next 14.0 days since TLE Epoch: 6/30/2012
Index Date (AQUA) Time (AQUA) Lat,Lon (AQUA) SZA (AQUA ) Date (NPP) Time (NPP) Lat,Lon (NPP) SZA (NPP ) Distance(km) Time Diff (sec)
1 06/30/2012 07:11:04 76.55, -47.09 74.12 06/30/2012 07:10:12 76.55, -47.09 74.16 0.16 52
2 06/30/2012 08:00:12 -77.46, 123.91 107.00 06/30/2012 08:00:37 -77.46, 123.98 107.04 1.87 25
3 07/02/2012 23:27:26 76.96, 70.24 73.83 07/02/2012 23:27:03 76.97, 70.27 73.84 0.98 23
4 07/03/2012 00:16:42 -77.49,-120.08 106.83 07/03/2012 00:17:37 -77.48,-120.20 106.85 2.93 55
5 07/05/2012 14:54:42 -76.39, 16.45 105.21 07/05/2012 14:53:35 -76.38, 16.45 105.16 0.25 67
6 07/05/2012 15:43:49 77.26,-172.76 73.72 07/05/2012 15:43:59 77.27,-172.72 73.70 1.02 10
7 07/08/2012 07:11:06 -76.68, 133.33 105.27 07/08/2012 07:10:36 -76.68, 133.26 105.23 1.95 30
8 07/08/2012 08:00:13 77.55, -55.74 73.67 07/08/2012 08:01:00 77.55, -55.74 73.63 0.18 47
9 07/10/2012 22:38:15 76.37, 80.50 75.46 07/10/2012 22:37:08 76.36, 80.48 75.52 0.63 67
10 07/10/2012 23:27:23 -77.29,-108.56 105.67 07/10/2012 23:27:33 -77.30,-108.50 105.69 1.43 10
11 07/13/2012 14:54:32 76.97,-161.53 75.11 07/13/2012 14:54:09 76.98,-161.48 75.12 1.45 23




NCC Satellite Simultaneous Nadir Overpasses (SNOs) Prediction Service
